period_start,C,m1,H,J0,J1,J2,J3,J4,J5,JA,JB,JC,JD,JJ,JK,JN,#
2015-12-04 00:00:31,0.14,4.76,0.00,21.66,26.00,29.65,14.72,51.42,1022.96,2035.99,2083.38,2107.40,2358.62,599.99,602.50,16.78,0000 0000 0000 0000 000000
2015-12-04 00:05:32,0.13,4.77,0.00,21.68,26.00,29.62,14.75,51.35,1022.96,2035.99,2081.87,2106.14,2357.36,599.83,602.28,16.83,0000 0000 0000 0000 000000
2015-12-04 00:10:34,0.14,4.78,0.00,21.69,26.00,29.60,14.85,51.46,1022.96,2035.99,2080.45,2104.96,2356.04,600.31,602.72,16.88,0000 0000 0000 0000 000000
2015-12-04 00:15:35,0.17,4.79,0.00,21.69,26.00,29.59,14.75,51.37,1022.96,2035.99,2078.79,2103.65,2354.61,599.92,602.30,16.93,0000 0000 0000 0000 000000
2015-12-04 00:20:36,0.14,4.80,0.00,21.67,26.00,29.59,14.74,51.54,1022.96,2035.99,2077.20,2102.38,2353.20,599.90,602.36,16.98,0000 0000 0000 0000 000000
2015-12-04 00:25:38,0.16,4.80,0.00,21.69,26.00,29.60,14.79,51.58,1022.96,2035.99,2075.59,2101.04,2351.77,600.00,602.37,17.03,0000 0000 0000 0000 000000
2015-12-04 00:30:39,0.18,4.81,0.00,21.72,26.00,29.63,14.72,51.48,1022.96,2035.99,2073.76,2099.65,2350.30,599.80,602.16,17.08,0000 0000 0000 0000 000000
2015-12-04 00:35:40,0.14,4.82,0.00,21.73,26.00,29.63,14.68,51.46,1022.96,2035.99,2072.16,2098.44,2348.80,600.14,602.38,17.13,0000 0000 0000 0000 000000
2015-12-04 00:40:42,0.18,4.83,0.00,21.74,26.00,29.62,14.76,51.53,1022.96,2035.99,2070.25,2096.95,2347.29,599.93,602.24,17.18,0000 0000 0000 0000 000000
2015-12-04 00:45:43,0.21,4.84,0.00,21.73,26.00,29.60,14.76,51.53,1022.96,2035.98,2067.98,2095.24,2345.55,599.94,602.40,17.24,0000 0000 0000 0000 000000
2015-12-04 00:50:45,0.22,4.85,0.00,21.72,26.00,29.67,14.75,51.60,1022.96,2035.99,2065.66,2093.40,2343.54,599.99,602.37,17.29,0000 0000 0000 0000 000000
2015-12-04 00:55:46,0.26,4.86,0.00,21.74,26.00,29.61,14.89,51.46,1022.96,2035.99,2063.19,2091.40,2341.35,600.25,602.52,17.34,0000 0000 0000 0000 000000
2015-12-04 01:00:47,0.27,4.88,0.00,21.77,26.00,29.63,14.76,51.46,1022.96,2035.98,2060.36,2089.20,2338.98,599.83,602.10,17.39,0000 0000 0000 0000 000000
2015-12-04 01:05:48,0.26,4.89,0.00,21.79,26.00,29.60,14.69,51.51,1022.96,2035.99,2057.64,2087.03,2336.56,600.02,602.33,17.44,0000 0000 0000 0000 000000
2015-12-04 01:10:49,0.26,4.90,0.00,21.77,26.00,29.61,14.81,51.48,1022.96,2035.99,2055.02,2084.85,2334.20,600.16,602.35,17.49,0000 0000 0000 0000 000000
2015-12-04 01:15:50,0.24,4.91,0.00,21.77,26.01,29.57,14.73,51.27,1022.96,2035.98,2052.49,2082.86,2332.03,599.85,602.11,17.54,0000 0000 0000 0000 000000
2015-12-04 01:20:51,0.19,4.93,0.00,21.78,26.02,29.57,14.71,51.27,1022.97,2035.99,2050.30,2081.10,2330.11,599.91,602.15,17.59,0000 0000 0000 0000 000000
2015-12-04 01:25:52,0.21,4.94,0.00,21.79,26.02,29.58,14.70,51.32,1022.97,2035.99,2048.14,2079.38,2328.27,599.88,602.06,17.64,0000 0000 0000 0000 000000
2015-12-04 01:30:54,0.23,4.95,0.00,21.81,26.02,29.63,14.76,51.27,1022.98,2035.98,2046.08,2077.55,2326.20,599.90,602.07,17.69,0000 0000 0000 0000 000000
2015-12-04 01:35:55,0.23,4.96,0.00,21.81,26.02,29.64,14.82,51.30,1022.98,2035.98,2043.72,2075.62,2324.19,600.04,602.20,17.74,0000 0000 0000 0000 000000
2015-12-04 01:40:56,0.24,4.97,0.00,21.82,26.02,29.65,14.75,51.33,1022.99,2035.97,2041.30,2073.71,2322.04,599.76,601.94,17.79,0000 0000 0000 0000 000000
2015-12-04 01:45:57,0.21,4.98,0.00,21.83,26.03,29.64,14.74,51.33,1022.99,2035.96,2039.00,2071.88,2320.05,599.81,602.09,17.84,0000 0000 0000 0000 000000
2015-12-04 01:50:59,0.25,4.99,0.00,21.82,26.05,29.63,14.75,51.39,1023.01,2035.93,2036.62,2070.04,2318.06,600.02,602.28,17.89,0000 0000 0000 0000 000000
2015-12-04 01:56:00,0.26,5.01,0.00,21.79,26.05,29.71,14.75,51.42,1023.05,2035.90,2033.73,2067.77,2315.59,599.90,602.19,17.94,0000 0000 0000 0000 000000
2015-12-04 02:01:01,0.42,5.02,0.00,21.79,26.05,29.68,14.71,51.42,1022.99,2035.89,2029.79,2064.86,2312.41,599.72,601.89,17.99,0000 0000 0000 0000 000000
2015-12-04 02:06:03,0.59,5.05,0.00,21.80,26.05,29.70,14.71,51.41,1022.97,2035.83,2023.51,2060.39,2307.52,599.99,602.29,18.04,0000 0000 0000 0000 000000
2015-12-04 02:11:04,0.51,5.08,0.00,21.82,26.07,29.66,14.66,51.40,1022.96,2035.79,2017.97,2056.40,2303.22,599.73,602.00,18.09,0000 0000 0000 0000 000000
2015-12-04 02:16:05,0.43,5.10,0.00,21.81,26.07,29.63,14.85,51.50,1022.96,2035.60,2012.87,2052.72,2299.26,600.09,602.26,18.14,0000 0000 0000 0000 000000
2015-12-04 02:21:06,0.35,5.12,0.00,21.83,26.07,29.67,14.75,51.47,1022.96,2035.38,2008.68,2049.58,2295.91,600.00,602.14,18.19,0000 0000 0000 0000 000000
2015-12-04 02:26:07,0.48,5.14,0.00,21.82,26.07,29.70,14.68,51.50,1022.96,2035.30,2003.87,2046.23,2292.05,600.02,602.08,18.24,0000 0000 0000 0000 000000
2015-12-04 02:31:08,0.33,5.16,0.00,21.81,26.08,29.64,14.77,51.49,1022.96,2035.28,1999.88,2043.41,2288.83,600.01,602.12,18.29,0000 0000 0000 0000 000000
2015-12-04 02:36:10,0.31,5.18,0.00,21.80,26.10,29.71,14.67,51.48,1022.96,2035.32,1996.76,2041.07,2286.28,599.73,601.92,18.34,0000 0000 0000 0000 000000
2015-12-04 02:41:11,0.27,5.19,0.00,21.79,26.10,29.76,14.78,51.57,1022.96,2035.20,1993.82,2038.80,2283.77,600.39,602.61,18.39,0000 0000 0000 0000 000000
2015-12-04 02:46:12,0.36,5.21,0.00,21.81,26.10,29.73,14.78,51.58,1022.97,2035.11,1990.43,2036.12,2280.82,600.13,602.36,18.44,0000 0000 0000 0000 000000
2015-12-04 02:51:14,0.64,5.24,0.00,21.79,26.11,29.77,14.76,51.54,1022.97,2035.06,1984.56,2031.75,2276.08,599.86,602.10,18.49,0000 0000 0000 0000 000000
2015-12-04 02:56:15,0.83,5.28,0.00,21.79,26.12,29.73,14.71,51.53,1022.97,2035.03,1976.36,2025.45,2269.65,600.04,602.34,18.54,0000 0000 0000 0000 000000
2015-12-04 03:01:16,0.73,5.31,0.00,21.78,26.12,29.82,14.80,51.59,1022.98,2035.02,1968.77,2019.84,2263.92,600.29,602.56,18.59,0000 0000 0000 0000 000000
2015-12-04 03:06:18,0.69,5.35,0.00,21.78,26.12,29.77,14.82,51.53,1022.99,2035.02,1961.46,2014.76,2258.36,600.27,602.49,18.64,0000 0000 0000 0000 000000
2015-12-04 03:11:19,0.71,5.39,0.00,21.75,26.14,29.73,14.83,51.58,1022.97,2035.03,1953.96,2009.49,2252.63,600.31,602.65,18.69,0000 0000 0000 0000 000000
2015-12-04 03:16:20,0.58,5.42,0.00,21.77,26.15,29.73,14.77,51.62,1022.96,2035.00,1947.90,2005.08,2247.87,600.05,602.31,18.74,0000 0000 0000 0000 000000
2015-12-04 03:21:22,0.59,5.45,0.00,21.79,26.15,29.81,14.83,51.67,1022.97,2035.00,1941.88,2000.79,2243.17,599.87,601.97,18.79,0000 0000 0000 0000 000000
2015-12-04 03:26:23,0.65,5.48,0.00,21.81,26.15,29.77,14.76,51.63,1022.96,2035.00,1935.61,1996.25,2238.32,599.94,602.07,18.84,0000 0000 0000 0000 000000
2015-12-04 03:31:24,0.63,5.51,0.97,21.84,26.17,29.79,14.81,51.56,1022.96,2035.00,1929.15,1991.66,2233.37,600.05,602.19,18.89,0000 0000 0000 0000 000000
2015-12-04 03:36:25,0.54,5.54,1.00,21.83,26.17,29.76,14.82,51.61,1022.96,2035.00,1923.59,1987.63,2229.00,600.27,602.39,18.94,0000 0000 0000 0000 000000
2015-12-04 03:41:27,0.59,5.57,1.00,21.82,26.17,29.79,14.78,51.66,1022.97,2035.00,1917.98,1983.51,2224.47,600.02,602.18,18.99,0000 0000 0000 0000 000000
2015-12-04 03:46:28,0.60,5.60,1.00,21.86,26.17,29.83,14.83,51.61,1022.98,2034.99,1912.14,1979.28,2219.75,599.88,602.00,19.04,0000 0000 0000 0000 000000
2015-12-04 03:51:29,0.57,5.63,1.00,21.86,26.19,29.82,14.71,51.56,1022.98,2034.99,1906.39,1975.09,2215.16,599.65,601.87,19.09,0000 0000 0000 0000 000000
2015-12-04 03:56:30,0.56,5.66,1.00,21.87,26.20,29.83,14.83,51.71,1022.96,2034.99,1900.79,1971.13,2210.68,600.07,602.04,19.14,0000 0000 0000 0000 000000
2015-12-04 04:01:32,0.49,5.68,1.00,21.87,26.20,29.85,14.71,51.70,1022.96,2034.99,1896.04,1967.65,2206.86,599.87,601.86,19.19,0000 0000 0000 0000 000000
2015-12-04 04:06:33,0.59,5.71,1.00,21.89,26.20,29.83,14.79,51.66,1022.96,2034.99,1890.58,1963.64,2202.44,599.80,601.82,19.24,0000 0000 0000 0000 000000
2015-12-04 04:11:34,0.62,5.74,1.00,21.91,26.22,29.79,14.80,51.58,1022.96,2034.98,1884.57,1959.16,2197.58,600.00,601.97,19.29,0000 0000 0000 0000 000000
2015-12-04 04:16:35,0.57,5.77,1.00,21.92,26.22,29.79,14.82,51.67,1022.96,2034.96,1878.99,1955.02,2193.01,599.98,601.93,19.34,0000 0000 0000 0000 000000
2015-12-04 04:21:36,0.51,5.80,1.00,21.96,26.22,29.85,14.74,51.56,1022.96,2034.96,1874.25,1951.52,2189.15,599.92,601.85,19.39,0000 0000 0000 0000 000000
2015-12-04 04:26:38,0.54,5.83,1.00,21.99,26.22,29.79,14.75,51.70,1022.96,2034.98,1869.17,1947.77,2185.03,599.81,601.66,19.44,0000 0000 0000 0000 000000
2015-12-04 04:31:39,0.58,5.85,1.00,22.01,26.24,29.82,14.80,51.63,1022.96,2034.98,1863.84,1943.84,2180.72,600.08,601.93,19.49,0000 0000 0000 0000 000000
2015-12-04 04:36:40,0.52,5.88,1.00,22.01,26.25,29.82,14.74,51.74,1022.96,2034.96,1858.70,1940.04,2176.53,600.10,601.96,19.54,0000 0000 0000 0000 000000
2015-12-04 04:41:42,0.58,5.91,1.00,22.03,26.25,29.80,14.75,51.61,1022.96,2034.95,1853.58,1936.21,2172.42,600.06,601.79,19.59,0000 0000 0000 0000 000000
2015-12-04 04:46:43,0.51,5.94,1.00,22.06,26.25,29.82,14.79,51.72,1022.96,2034.84,1848.47,1932.45,2168.30,600.35,602.12,19.64,0000 0000 0000 0000 000000
2015-12-04 04:51:44,0.52,5.96,1.00,22.04,26.27,29.85,14.77,51.69,1022.97,2034.69,1843.44,1928.76,2164.25,600.06,601.76,19.69,0000 0000 0000 0000 000000
2015-12-04 04:56:45,0.66,5.99,1.00,22.05,26.27,29.82,14.74,51.72,1022.97,2034.69,1837.49,1924.42,2159.49,600.02,601.71,19.74,0000 0000 0000 0000 000000
2015-12-04 05:01:47,0.63,6.02,1.00,22.06,26.27,29.81,14.77,51.70,1022.96,2034.56,1831.63,1920.11,2154.67,600.06,601.82,19.79,0000 0000 0000 0000 000000
2015-12-04 05:06:48,0.68,6.06,1.00,22.08,26.29,29.84,14.75,51.57,1022.96,2034.57,1825.56,1915.64,2149.67,600.09,601.75,19.84,0000 0000 0000 0000 000000
2015-12-04 05:11:49,0.59,6.09,1.00,22.09,26.30,29.85,14.75,51.68,1022.96,2034.27,1819.72,1911.24,2144.87,600.27,601.86,19.89,0000 0000 0000 0000 000000
2015-12-04 05:16:51,0.67,6.12,1.00,22.09,26.30,29.86,14.78,51.64,1022.96,2034.18,1813.69,1906.81,2140.02,600.18,601.79,19.94,0000 0000 0000 0000 000000
2015-12-04 05:21:52,0.68,6.16,1.00,22.11,26.31,29.86,14.77,51.68,1022.96,2034.07,1807.38,1902.25,2135.02,599.85,601.35,19.99,0000 0000 0000 0000 000000
2015-12-04 05:26:54,0.62,6.19,1.00,22.15,26.32,29.89,14.73,51.62,1022.96,2034.04,1801.47,1898.03,2130.40,600.17,601.62,20.04,0000 0000 0000 0000 000000
2015-12-04 05:31:55,0.65,6.22,1.00,22.13,26.32,29.91,14.75,51.77,1022.96,2034.04,1795.70,1893.89,2125.82,600.23,601.71,20.09,0000 0000 0000 0000 000000
2015-12-04 05:36:57,0.64,6.26,1.00,22.12,26.33,29.91,14.69,51.69,1022.96,2034.00,1789.86,1889.59,2121.16,599.65,601.35,20.14,0000 0000 0000 0000 000000
2015-12-04 05:41:58,0.76,6.29,1.00,22.13,26.35,29.94,14.68,51.67,1022.97,2034.01,1783.16,1884.99,2116.12,599.74,601.32,20.19,0000 0000 0000 0000 000000
2015-12-04 05:46:59,0.62,6.33,1.00,22.13,26.35,29.93,14.72,51.76,1022.98,2034.00,1777.19,1880.82,2111.57,600.12,601.66,20.24,0000 0000 0000 0000 000000
2015-12-04 05:52:00,0.67,6.36,1.00,22.16,26.36,29.96,14.82,51.84,1022.98,2034.00,1771.24,1876.51,2107.00,600.27,601.69,20.29,0000 0000 0000 0000 000000
2015-12-04 05:57:02,0.67,6.39,1.00,22.18,26.37,29.97,14.80,51.83,1022.97,2034.00,1765.17,1872.19,2102.28,600.09,601.41,20.34,0000 0000 0000 0000 000000
2015-12-04 06:02:03,0.63,6.43,1.00,22.20,26.37,29.94,14.82,51.79,1022.96,2033.99,1759.63,1868.09,2097.79,600.28,601.59,20.39,0000 0000 0000 0000 000000
2015-12-04 06:07:04,0.46,6.45,1.00,22.17,26.39,29.95,14.73,51.73,1022.96,2033.99,1755.50,1864.97,2094.33,599.85,601.32,20.44,0000 0000 0000 0000 000000
2015-12-04 06:12:06,0.33,6.47,1.00,22.17,26.40,29.98,14.81,51.84,1022.96,2033.99,1752.57,1862.60,2091.73,600.07,601.50,20.49,0000 0000 0000 0000 000000
2015-12-04 06:17:07,0.30,6.49,1.00,22.21,26.40,29.98,14.81,51.83,1022.96,2033.99,1750.13,1860.62,2089.51,600.19,601.69,20.54,0000 0000 0000 0000 000000
2015-12-04 06:22:08,0.26,6.50,1.00,22.22,26.42,29.97,14.70,51.80,1022.96,2033.98,1748.08,1858.89,2087.61,599.76,601.04,20.59,0000 0000 0000 0000 000000
2015-12-04 06:27:09,0.27,6.51,0.90,22.19,26.42,30.04,14.71,51.91,1022.96,2033.97,1745.94,1857.07,2085.60,600.04,601.39,20.64,0000 0000 0000 0000 000000
2015-12-04 06:32:10,0.31,6.53,0.00,22.17,26.43,30.06,14.81,51.88,1022.97,2033.98,1743.48,1855.14,2083.32,600.02,601.46,20.69,0000 0000 0000 0000 000000
2015-12-04 06:37:11,0.34,6.54,0.00,22.21,26.45,30.05,14.71,51.80,1022.96,2033.99,1740.69,1853.02,2080.88,599.91,601.27,20.74,0000 0000 0000 0000 000000
2015-12-04 06:42:13,0.37,6.56,0.00,22.24,26.45,30.03,14.72,51.94,1022.96,2033.96,1737.66,1850.69,2078.30,599.90,601.25,20.79,0000 0000 0000 0000 000000
2015-12-04 06:47:14,0.33,6.58,0.00,22.22,26.47,30.05,14.76,51.99,1022.96,2033.94,1734.83,1848.48,2075.84,600.15,601.49,20.84,0000 0000 0000 0000 000000
2015-12-04 06:52:15,0.43,6.60,0.00,22.24,26.47,30.06,14.72,51.97,1022.97,2033.84,1731.40,1845.87,2072.90,599.94,601.24,20.89,0000 0000 0000 0000 000000
2015-12-04 06:57:16,0.44,6.62,0.00,22.26,26.48,30.07,14.79,52.07,1022.97,2033.83,1727.69,1843.01,2069.78,600.17,601.48,20.94,0000 0000 0000 0000 000000
2015-12-04 07:02:17,0.39,6.64,0.00,22.25,26.50,30.07,14.73,52.03,1022.99,2033.78,1724.21,1840.29,2066.73,599.99,601.41,20.99,0000 0000 0000 0000 000000
2015-12-04 07:07:19,0.31,6.66,0.00,22.25,26.50,30.10,14.67,51.96,1022.98,2033.39,1721.28,1837.99,2064.26,599.93,601.13,21.04,0000 0000 0000 0000 000000
2015-12-04 07:12:21,0.25,6.68,0.00,22.23,26.51,30.08,14.74,52.02,1023.08,2033.16,1718.78,1835.98,2062.02,599.89,601.27,21.09,0000 0000 0000 0000 000000
2015-12-04 07:17:22,0.25,6.69,0.00,22.18,26.52,30.12,14.85,52.02,1023.29,2033.16,1716.77,1834.37,2060.25,600.02,601.66,21.14,0000 0000 0000 0000 000000
2015-12-04 07:22:23,0.25,6.70,0.00,22.10,26.53,30.14,14.80,52.04,1023.38,2033.19,1714.92,1832.76,2058.59,599.92,601.74,21.19,0000 0000 0000 0000 000000
2015-12-04 07:27:24,0.19,6.71,0.00,22.07,26.55,30.11,14.78,52.08,1023.44,2033.05,1713.21,1831.36,2056.89,599.98,601.87,21.24,0000 0000 0000 0000 000000
2015-12-04 07:32:25,0.23,6.72,0.00,22.04,26.55,30.07,14.79,52.13,1023.42,2033.02,1711.55,1829.82,2055.22,599.94,601.87,21.29,0000 0000 0000 0000 000000
2015-12-04 07:37:27,0.23,6.73,0.00,22.07,26.57,30.15,14.76,52.13,1023.44,2033.01,1709.67,1828.31,2053.51,600.06,602.07,21.34,0000 0000 0000 0000 000000
2015-12-04 07:42:28,0.22,6.75,0.00,22.11,26.57,30.23,14.85,52.17,1023.45,2033.00,1707.92,1826.84,2051.84,600.21,601.96,21.39,0000 0000 0000 0000 000000
2015-12-04 07:47:30,0.20,6.75,0.00,22.13,26.59,30.26,14.91,52.16,1023.45,2033.00,1706.29,1825.47,2050.32,600.27,602.05,21.44,0000 0000 0000 0000 000000
2015-12-04 07:52:30,0.19,6.77,0.00,22.14,26.60,30.19,14.78,52.09,1023.45,2033.00,1704.76,1824.17,2048.84,599.97,601.77,21.49,0000 0000 0000 0000 000000
2015-12-04 07:57:32,0.19,6.78,0.00,22.15,26.62,30.15,14.68,51.98,1023.45,2033.00,1703.39,1822.91,2047.44,599.63,601.30,21.54,0000 0000 0000 0000 000000
2015-12-04 08:02:33,0.17,6.78,0.00,22.21,26.62,30.16,14.73,52.07,1023.45,2032.99,1701.97,1821.75,2046.39,599.83,601.40,21.59,0000 0000 0000 0000 000000
2015-12-04 08:07:35,0.18,6.79,0.00,22.22,26.64,30.18,14.75,52.14,1023.45,2032.99,1700.67,1820.63,2045.13,600.14,601.80,21.64,0000 0000 0000 0000 000000
2015-12-04 08:12:36,0.16,6.80,0.00,22.25,26.65,30.26,14.66,52.02,1023.45,2032.97,1699.37,1819.51,2043.85,599.79,601.36,21.69,0000 0000 0000 0000 000000
2015-12-04 08:17:37,0.17,6.81,0.00,22.25,26.67,30.25,14.76,52.02,1023.45,2032.97,1698.06,1818.37,2042.58,599.81,601.47,21.74,0000 0000 0000 0000 000000
2015-12-04 08:22:38,0.17,6.82,0.00,22.27,26.68,30.23,14.76,52.14,1023.46,2032.95,1696.72,1817.25,2041.32,599.94,601.42,21.79,0000 0000 0000 0000 000000
2015-12-04 08:27:40,0.15,6.83,0.00,22.32,26.70,30.21,14.77,52.12,1023.47,2032.80,1695.47,1816.07,2039.97,600.08,601.58,21.85,0000 0000 0000 0000 000000
2015-12-04 08:32:41,0.13,6.84,0.00,22.33,26.71,30.27,14.80,52.09,1023.50,2032.48,1694.07,1814.93,2038.67,600.21,601.59,21.90,0000 0000 0000 0000 000000
2015-12-04 08:37:42,0.16,6.84,0.00,22.51,26.72,30.21,14.66,52.08,1023.51,2032.18,1692.71,1813.74,2037.42,599.70,600.83,21.95,0000 0000 0000 0000 000000
2015-12-04 08:42:43,0.16,6.85,0.00,22.61,26.74,30.23,14.66,52.06,1023.64,2032.04,1691.37,1812.62,2036.08,599.93,600.88,22.00,0000 0000 0000 0000 000000
2015-12-04 08:47:45,0.18,6.86,0.00,22.66,26.76,30.25,14.68,52.16,1023.83,2032.01,1689.94,1811.46,2034.74,599.90,600.94,22.05,0000 0000 0000 0000 000000
2015-12-04 08:52:46,0.17,6.87,0.00,22.70,26.78,30.28,14.69,52.09,1023.91,2032.01,1688.63,1810.34,2033.53,599.99,600.92,22.10,0000 0000 0000 0000 000000
2015-12-04 08:57:47,0.16,6.88,0.00,22.76,26.80,30.32,14.78,52.11,1023.94,2032.00,1687.36,1809.24,2032.28,599.96,600.67,22.15,0000 0000 0000 0000 000000
2015-12-04 09:02:49,0.21,6.89,0.00,22.79,26.82,30.35,14.69,51.98,1023.94,2032.00,1685.80,1807.93,2030.77,599.97,600.67,22.20,0000 0000 0000 0000 000000
2015-12-04 09:07:50,0.18,6.90,0.00,22.82,26.85,30.37,14.72,52.04,1023.95,2031.99,1684.41,1806.70,2029.45,600.02,600.75,22.25,0000 0000 0000 0000 000000
2015-12-04 09:12:51,0.18,6.91,0.00,22.85,26.87,30.38,14.68,51.98,1023.95,2031.97,1682.90,1805.54,2028.06,600.31,600.91,22.30,0000 0000 0000 0000 000000
2015-12-04 09:17:53,0.18,6.92,0.00,22.86,26.90,30.41,14.75,51.99,1023.95,2031.86,1681.43,1804.29,2026.62,600.00,600.56,22.35,0000 0000 0000 0000 000000
2015-12-04 09:22:54,0.14,6.93,0.00,22.84,26.92,30.46,14.71,52.08,1023.94,2031.67,1680.00,1803.02,2025.33,599.97,600.54,22.40,0000 0000 0000 0000 000000
2015-12-04 09:27:55,0.16,6.93,0.00,22.93,26.95,30.46,14.66,52.02,1023.94,2031.19,1678.51,1801.74,2023.83,599.93,600.41,22.45,0000 0000 0000 0000 000000
2015-12-04 09:32:56,0.18,6.94,0.00,22.97,26.97,30.48,14.75,52.13,1023.94,2031.05,1676.95,1800.51,2022.46,600.13,600.51,22.50,0000 0000 0000 0000 000000
2015-12-04 09:37:58,0.19,6.95,0.00,22.98,27.00,30.53,14.64,52.02,1023.94,2031.02,1675.55,1799.31,2021.09,599.59,599.96,22.55,0000 0000 0000 0000 000000
2015-12-04 09:42:59,0.18,6.96,0.00,22.99,27.02,30.54,14.76,52.13,1023.95,2031.00,1674.08,1798.06,2019.69,600.16,600.33,22.60,0000 0000 0000 0000 000000
2015-12-04 09:48:00,0.21,6.97,0.00,23.04,27.06,30.55,14.67,52.08,1023.96,2031.00,1672.56,1796.82,2018.33,600.00,600.19,22.65,0000 0000 0000 0000 000000
2015-12-04 09:53:01,0.19,6.98,0.00,23.08,27.08,30.54,14.74,51.98,1023.95,2031.00,1671.13,1795.59,2016.94,600.26,600.44,22.70,0000 0000 0000 0000 000000
2015-12-04 09:58:03,0.20,6.99,0.00,23.09,27.11,30.59,14.74,52.07,1023.99,2030.99,1669.65,1794.42,2015.62,600.12,600.27,22.75,0000 0000 0000 0000 000000
2015-12-04 10:03:04,0.15,7.00,0.00,23.12,27.13,30.63,14.78,51.97,1024.18,2030.83,1668.11,1793.14,2014.10,600.01,600.20,22.80,0000 0000 0000 0000 000000
2015-12-04 10:08:05,0.15,7.01,0.00,23.17,27.16,30.69,14.72,51.98,1024.31,2030.44,1666.63,1791.91,2012.70,600.35,600.53,22.85,0000 0000 0000 0000 000000
2015-12-04 10:13:07,0.16,7.01,0.00,23.18,27.19,30.67,14.63,51.94,1024.38,2030.12,1665.19,1790.72,2011.38,599.66,599.88,22.90,0000 0000 0000 0000 000000
2015-12-04 10:18:08,0.21,7.02,0.00,23.18,27.21,30.66,14.68,52.08,1024.34,2030.01,1663.67,1789.51,2009.84,599.47,599.66,22.95,0000 0000 0000 0000 000000
2015-12-04 10:23:09,0.17,7.03,0.00,23.23,27.24,30.68,14.69,52.07,1024.14,2030.00,1662.37,1788.26,2008.51,600.03,600.07,23.00,0000 0000 0000 0000 000000
2015-12-04 10:28:10,0.19,7.04,0.00,23.27,27.26,30.75,14.68,52.01,1024.17,2030.00,1660.88,1787.01,2007.12,600.01,599.83,23.05,0000 0000 0000 0000 000000
2015-12-04 10:33:12,0.22,7.05,0.00,23.30,27.29,30.77,14.74,52.02,1024.26,2029.99,1659.37,1785.69,2005.64,599.85,599.83,23.10,0000 0000 0000 0000 000000
2015-12-04 10:38:13,0.20,7.06,0.00,23.35,27.32,30.77,14.72,52.01,1024.28,2029.98,1657.79,1784.47,2004.25,600.21,600.03,23.15,0000 0000 0000 0000 000000
2015-12-04 10:43:14,0.17,7.07,0.00,23.38,27.35,30.85,14.70,52.15,1024.23,2029.94,1656.41,1783.29,2002.88,600.32,600.06,23.20,0000 0000 0000 0000 000000
2015-12-04 10:48:16,0.15,7.08,0.00,23.39,27.37,30.86,14.67,52.06,1024.29,2029.63,1654.88,1782.02,2001.53,599.86,599.57,23.25,0000 0000 0000 0000 000000
2015-12-04 10:53:17,0.16,7.09,0.00,23.37,27.39,30.85,14.69,52.07,1024.29,2029.24,1653.39,1780.76,2000.16,600.16,599.95,23.30,0000 0000 0000 0000 000000
2015-12-04 10:58:18,0.19,7.10,0.00,23.40,27.41,30.84,14.64,52.02,1024.34,2029.04,1651.83,1779.51,1998.68,599.97,599.74,23.35,0000 0000 0000 0000 000000
2015-12-04 11:03:20,0.18,7.11,0.00,23.43,27.44,30.96,14.67,52.08,1024.38,2029.02,1650.44,1778.34,1997.34,599.68,599.34,23.40,0000 0000 0000 0000 000000
2015-12-04 11:08:21,0.17,7.12,0.00,23.47,27.46,30.93,14.64,52.03,1024.35,2029.00,1648.94,1777.14,1996.00,599.82,599.49,23.45,0000 0000 0000 0000 000000
2015-12-04 11:13:22,0.19,7.13,0.00,23.50,27.48,30.91,14.68,52.03,1024.42,2029.00,1647.61,1776.03,1994.75,600.26,599.88,23.50,0000 0000 0000 0000 000000
2015-12-04 11:18:23,0.17,7.14,0.00,23.52,27.50,30.96,14.68,52.08,1024.43,2029.00,1646.27,1774.91,1993.54,599.82,599.34,23.55,0000 0000 0000 0000 000000
2015-12-04 11:23:25,0.16,7.14,0.00,23.56,27.52,30.97,14.70,52.01,1024.45,2028.97,1645.01,1773.91,1992.39,599.93,599.27,23.60,0000 0000 0000 0000 000000
2015-12-04 11:28:26,0.14,7.15,0.00,23.59,27.53,31.00,14.73,52.12,1024.52,2028.96,1643.91,1773.01,1991.41,600.38,599.85,23.65,0000 0000 0000 0000 000000
2015-12-04 11:33:28,0.10,7.16,0.00,23.62,27.55,31.03,14.67,52.11,1024.55,2028.81,1643.00,1772.13,1990.44,600.18,599.51,23.70,0000 0000 0000 0000 000000
2015-12-04 11:38:29,0.08,7.16,0.00,23.62,27.56,31.03,14.68,52.13,1024.57,2028.47,1642.14,1771.55,1989.85,599.92,599.31,23.75,0000 0000 0000 0000 000000
2015-12-04 11:43:30,0.06,7.17,0.00,23.64,27.57,31.09,14.71,52.11,1024.47,2028.31,1641.52,1771.00,1989.06,600.02,599.42,23.80,0000 0000 0000 0000 000000
2015-12-04 11:48:31,0.10,7.17,0.00,23.67,27.57,31.10,14.64,52.12,1024.44,2028.17,1640.88,1770.25,1988.39,600.10,599.33,23.85,0000 0000 0000 0000 000000
2015-12-04 11:53:33,0.06,7.17,0.00,23.70,27.60,31.14,14.68,52.04,1024.45,2028.13,1640.05,1769.87,1987.85,599.93,599.17,23.90,0000 0000 0000 0000 000000
2015-12-04 11:58:34,0.11,7.18,0.00,23.68,27.60,31.16,14.64,52.08,1024.44,2028.05,1639.35,1769.08,1987.05,599.79,598.99,23.95,0000 0000 0000 0000 000000
2015-12-04 12:03:35,0.10,7.18,0.00,23.66,27.61,31.14,14.62,51.94,1024.45,2028.02,1638.67,1768.62,1986.34,599.88,599.16,24.00,0000 0000 0000 0000 000000
2015-12-04 12:08:36,0.07,7.19,0.00,23.68,27.62,31.16,14.68,51.95,1024.45,2028.01,1637.90,1768.00,1985.63,600.08,599.28,24.05,0000 0000 0000 0000 000000
2015-12-04 12:13:37,0.11,7.19,0.00,23.67,27.62,31.18,14.72,52.03,1024.46,2028.01,1637.08,1767.29,1984.97,600.28,599.44,24.10,0000 0000 0000 0000 000000
2015-12-04 12:18:39,0.12,7.20,0.00,23.73,27.63,31.20,14.70,51.95,1024.53,2028.00,1636.22,1766.64,1984.11,600.00,599.00,24.15,0000 0000 0000 0000 000000
2015-12-04 12:23:40,0.10,7.21,0.00,23.77,27.65,31.23,14.65,52.05,1024.56,2028.00,1635.45,1765.95,1983.47,599.96,599.12,24.20,0000 0000 0000 0000 000000
2015-12-04 12:28:41,0.10,7.21,0.00,23.77,27.65,31.26,14.73,51.98,1024.52,2028.00,1634.69,1765.12,1982.83,600.18,599.26,24.25,0000 0000 0000 0000 000000
2015-12-04 12:33:43,0.11,7.22,0.00,23.73,27.66,31.25,14.65,52.00,1024.47,2028.00,1633.88,1764.50,1982.02,599.81,598.96,24.30,0000 0000 0000 0000 000000
2015-12-04 12:38:45,0.10,7.22,0.00,23.73,27.67,31.23,14.70,52.01,1024.48,2028.00,1632.99,1763.87,1981.14,600.15,599.25,24.35,0000 0000 0000 0000 000000
2015-12-04 12:43:46,0.13,7.23,0.00,23.79,27.67,31.27,14.69,51.88,1024.46,2027.99,1632.13,1763.06,1980.39,599.89,598.93,24.40,0000 0000 0000 0000 000000
2015-12-04 12:48:47,0.11,7.23,0.00,23.80,27.67,31.28,14.61,51.87,1024.46,2027.99,1631.42,1762.47,1979.72,599.68,598.80,24.45,0000 0000 0000 0000 000000
2015-12-04 12:53:49,0.08,7.24,0.00,23.81,27.69,31.28,14.67,51.83,1024.46,2027.98,1630.56,1761.85,1978.94,599.80,598.85,24.50,0000 0000 0000 0000 000000